| time (UTC) | temp F | wind direction | speed MPH | gust MPH | rain 1hr in | rain 24hr in | rain mn in | humidity % | barometer mb |
| 20260504034459 | 53 | 288 | 1.0 | 3.0 | 0.00 | 0.09 | 0.09 | 72 | 983.8 |
| 20260504033952 | 53 | 288 | 2.0 | 4.0 | 0.00 | 0.09 | 0.09 | 72 | 983.9 |
| 20260504033446 | 53 | 288 | 2.0 | 4.0 | 0.00 | 0.09 | 0.09 | 72 | 983.9 |
| 20260504032941 | 53 | 294 | 2.0 | 4.0 | 0.00 | 0.09 | 0.09 | 71 | 983.8 |
| 20260504031928 | 54 | 301 | 1.0 | 3.0 | 0.00 | 0.09 | 0.09 | 70 | 983.8 |
| 20260504030917 | 55 | 304 | 0.0 | 1.0 | 0.00 | 0.09 | 0.09 | 69 | 983.9 |
| 20260504030410 | 55 | 304 | 1.0 | 3.0 | 0.00 | 0.09 | 0.09 | 69 | 983.9 |
| 20260504025358 | 55 | 304 | 1.0 | 4.0 | 0.00 | 0.09 | 0.09 | 68 | 983.7 |
| 20260504024852 | 56 | 284 | 0.0 | 0.0 | 0.00 | 0.09 | 0.09 | 69 | 983.6 |
| 20260504023840 | 56 | 290 | 2.0 | 4.0 | 0.00 | 0.09 | 0.09 | 67 | 983.6 |
| 20260504023334 | 56 | 291 | 2.0 | 4.0 | 0.00 | 0.09 | 0.09 | 66 | 983.4 |
| 20260504022829 | 57 | 292 | 3.0 | 4.0 | 0.00 | 0.09 | 0.09 | 66 | 983.4 |
| 20260504022322 | 57 | 286 | 2.0 | 4.0 | 0.00 | 0.09 | 0.09 | 65 | 983.4 |
| 20260504021310 | 58 | 288 | 3.0 | 6.0 | 0.00 | 0.09 | 0.09 | 63 | 983.3 |
| 20260504020804 | 58 | 287 | 3.0 | 6.0 | 0.00 | 0.09 | 0.09 | 62 | 983.3 |
| 20260504020259 | 59 | 286 | 3.0 | 4.0 | 0.00 | 0.09 | 0.09 | 61 | 983.3 |
| 20260504015753 | 59 | 286 | 3.0 | 4.0 | 0.00 | 0.09 | 0.09 | 61 | 983.2 |
| 20260504015246 | 60 | 280 | 3.0 | 4.0 | 0.00 | 0.09 | 0.09 | 59 | 983.2 |
| 20260504014235 | 61 | 279 | 3.0 | 4.0 | 0.00 | 0.09 | 0.09 | 58 | 983.3 |
| 20260504013728 | 61 | 276 | 2.0 | 4.0 | 0.00 | 0.09 | 0.09 | 57 | 983.2 |
| 20260504013223 | 62 | 279 | 2.0 | 4.0 | 0.00 | 0.09 | 0.09 | 56 | 983.1 |
| 20260504012717 | 62 | 279 | 2.0 | 4.0 | 0.00 | 0.09 | 0.09 | 55 | 983.1 |
| 20260504011705 | 64 | 283 | 2.0 | 4.0 | 0.00 | 0.09 | 0.09 | 53 | 982.8 |
| 20260504011158 | 65 | 279 | 2.0 | 4.0 | 0.00 | 0.09 | 0.09 | 51 | 982.7 |
| 20260504010147 | 67 | 275 | 3.0 | 4.0 | 0.00 | 0.09 | 0.09 | 47 | 982.5 |
| 20260504005647 | 68 | 281 | 2.0 | 4.0 | 0.00 | 0.09 | 0.09 | 45 | 982.5 |
| 20260504005144 | 69 | 285 | 2.0 | 4.0 | 0.00 | 0.09 | 0.09 | 41 | 982.5 |
| 20260504004643 | 70 | 289 | 2.0 | 4.0 | 0.00 | 0.09 | 0.09 | 39 | 982.4 |
| 20260504004143 | 71 | 291 | 2.0 | 4.0 | 0.00 | 0.09 | 0.09 | 36 | 982.4 |
| 20260504003645 | 72 | 289 | 2.0 | 5.0 | 0.00 | 0.09 | 0.09 | 34 | 982.4 |
| 20260504003142 | 73 | 300 | 3.0 | 7.0 | 0.00 | 0.09 | 0.09 | 31 | 982.4 |
| 20260504002642 | 73 | 311 | 3.0 | 7.0 | 0.00 | 0.09 | 0.09 | 31 | 982.4 |
| 20260504001643 | 74 | 326 | 4.0 | 10.0 | 0.00 | 0.09 | 0.09 | 30 | 982.3 |
| 20260504000640 | 74 | 321 | 5.0 | 10.0 | 0.00 | 0.09 | 0.09 | 30 | 982.2 |
| 20260504000141 | 74 | 287 | 5.0 | 10.0 | 0.00 | 0.09 | 0.09 | 29 | 982.1 |
| 20260503235640 | 75 | 279 | 6.0 | 14.0 | 0.00 | 0.09 | 0.09 | 30 | 982.2 |
| 20260503235141 | 75 | 311 | 6.0 | 14.0 | 0.00 | 0.09 | 0.09 | 30 | 982.1 |
| 20260503234636 | 75 | 13 | 6.0 | 11.0 | 0.00 | 0.09 | 0.09 | 29 | 982.1 |
| 20260503234137 | 75 | 313 | 9.0 | 17.0 | 0.00 | 0.09 | 0.09 | 29 | 982.2 |
| 20260503233636 | 75 | 321 | 9.0 | 17.0 | 0.00 | 0.09 | 0.09 | 29 | 982.2 |
| 20260503233137 | 75 | 349 | 8.0 | 14.0 | 0.00 | 0.09 | 0.09 | 30 | 982.1 |
| 20260503232636 | 76 | 341 | 7.0 | 15.0 | 0.00 | 0.09 | 0.09 | 29 | 982.1 |
| 20260503231637 | 76 | 9 | 7.0 | 13.0 | 0.00 | 0.09 | 0.09 | 29 | 982.1 |
| 20260503231136 | 76 | 284 | 8.0 | 17.0 | 0.00 | 0.09 | 0.09 | 29 | 982.2 |
| 20260503230637 | 76 | 274 | 9.0 | 18.0 | 0.00 | 0.09 | 0.09 | 29 | 982.1 |
| 20260503230137 | 76 | 309 | 9.0 | 18.0 | 0.00 | 0.09 | 0.09 | 30 | 982.1 |
| 20260503225636 | 76 | 298 | 9.0 | 17.0 | 0.00 | 0.09 | 0.09 | 32 | 982.0 |
| 20260503225136 | 76 | 262 | 8.0 | 17.0 | 0.00 | 0.09 | 0.09 | 32 | 981.8 |
| 20260503224636 | 76 | 292 | 7.0 | 15.0 | 0.00 | 0.09 | 0.09 | 32 | 981.9 |
| 20260503224137 | 76 | 337 | 8.0 | 17.0 | 0.00 | 0.09 | 0.09 | 33 | 982.0 |
| 20260503223134 | 76 | 277 | 7.0 | 14.0 | 0.00 | 0.09 | 0.09 | 32 | 982.0 |
| 20260503222634 | 76 | 304 | 7.0 | 14.0 | 0.00 | 0.09 | 0.09 | 33 | 982.0 |
| 20260503222133 | 76 | 321 | 7.0 | 14.0 | 0.00 | 0.09 | 0.09 | 32 | 982.0 |
| 20260503221628 | 76 | 294 | 7.0 | 16.0 | 0.00 | 0.09 | 0.09 | 32 | 981.9 |
| 20260503221122 | 76 | 318 | 6.0 | 16.0 | 0.00 | 0.09 | 0.09 | 32 | 981.9 |
| 20260503220615 | 76 | 279 | 6.0 | 12.0 | 0.00 | 0.09 | 0.09 | 33 | 982.0 |
| 20260503220110 | 76 | 303 | 8.0 | 14.0 | 0.00 | 0.09 | 0.09 | 32 | 982.0 |
| 20260503215100 | 76 | 296 | 9.0 | 16.0 | 0.00 | 0.09 | 0.09 | 33 | 982.1 |
| 20260503214600 | 77 | 283 | 7.0 | 16.0 | 0.00 | 0.09 | 0.09 | 32 | 982.1 |
| 20260503214100 | 76 | 267 | 5.0 | 12.0 | 0.00 | 0.09 | 0.09 | 34 | 982.0 |
| 20260503213558 | 76 | 272 | 6.0 | 12.0 | 0.00 | 0.09 | 0.09 | 34 | 982.1 |
| 20260503212558 | 76 | 269 | 8.0 | 15.0 | 0.00 | 0.09 | 0.09 | 33 | 982.1 |
| 20260503212056 | 76 | 299 | 7.0 | 15.0 | 0.00 | 0.09 | 0.09 | 35 | 982.0 |
| 20260503211556 | 76 | 256 | 7.0 | 15.0 | 0.00 | 0.09 | 0.09 | 35 | 982.1 |
| 20260503211059 | 75 | 290 | 8.0 | 15.0 | 0.00 | 0.09 | 0.09 | 35 | 982.1 |
| 20260503210556 | 75 | 286 | 9.0 | 16.0 | 0.00 | 0.09 | 0.09 | 35 | 982.2 |
| 20260503205554 | 75 | 336 | 10.0 | 18.0 | 0.00 | 0.09 | 0.09 | 36 | 982.3 |
| 20260503204052 | 75 | 251 | 7.0 | 13.0 | 0.00 | 0.09 | 0.09 | 37 | 982.5 |
| 20260503203552 | 75 | 296 | 6.0 | 13.0 | 0.00 | 0.09 | 0.09 | 37 | 982.6 |
| 20260503203046 | 75 | 284 | 5.0 | 13.0 | 0.00 | 0.09 | 0.09 | 37 | 982.7 |
| 20260503202539 | 74 | 154 | 6.0 | 13.0 | 0.00 | 0.09 | 0.09 | 39 | 982.8 |
| 20260503202034 | 74 | 306 | 6.0 | 19.0 | 0.00 | 0.09 | 0.09 | 38 | 983.0 |
| 20260503201527 | 74 | 194 | 6.0 | 19.0 | 0.00 | 0.09 | 0.09 | 38 | 983.0 |
| 20260503201021 | 74 | 303 | 5.0 | 16.0 | 0.00 | 0.09 | 0.09 | 39 | 983.1 |
| 20260503200009 | 73 | 161 | 6.0 | 15.0 | 0.00 | 0.09 | 0.09 | 39 | 983.3 |
| 20260503195504 | 73 | 299 | 6.0 | 12.0 | 0.00 | 0.09 | 0.09 | 39 | 983.3 |
| 20260503194958 | 73 | 275 | 6.0 | 12.0 | 0.00 | 0.09 | 0.09 | 40 | 983.3 |
| 20260503194451 | 73 | 267 | 7.0 | 14.0 | 0.00 | 0.09 | 0.09 | 40 | 983.4 |
| 20260503193946 | 72 | 313 | 6.0 | 15.0 | 0.00 | 0.09 | 0.09 | 40 | 983.5 |
| 20260503193439 | 72 | 331 | 6.0 | 15.0 | 0.00 | 0.09 | 0.09 | 42 | 983.5 |
| 20260503192933 | 72 | 187 | 5.0 | 14.0 | 0.00 | 0.09 | 0.09 | 41 | 983.6 |
| 20260503192427 | 71 | 303 | 5.0 | 21.0 | 0.00 | 0.09 | 0.09 | 42 | 983.8 |
| 20260503191922 | 71 | 327 | 6.0 | 21.0 | 0.00 | 0.09 | 0.09 | 40 | 984.0 |
| 20260503191415 | 71 | 323 | 5.0 | 16.0 | 0.00 | 0.09 | 0.09 | 41 | 983.9 |
| 20260503190910 | 71 | 307 | 5.0 | 19.0 | 0.00 | 0.09 | 0.09 | 42 | 984.0 |
| 20260503190404 | 70 | 329 | 6.0 | 19.0 | 0.00 | 0.09 | 0.09 | 43 | 984.1 |
| 20260503185352 | 69 | 263 | 8.0 | 18.0 | 0.00 | 0.09 | 0.09 | 43 | 984.2 |
| 20260503184340 | 69 | 195 | 6.0 | 19.0 | 0.00 | 0.09 | 0.09 | 43 | 984.3 |
| 20260503183833 | 69 | 232 | 5.0 | 15.0 | 0.00 | 0.09 | 0.09 | 43 | 984.4 |
| 20260503183328 | 69 | 309 | 4.0 | 10.0 | 0.00 | 0.09 | 0.09 | 43 | 984.5 |
| 20260503182821 | 68 | 184 | 6.0 | 17.0 | 0.00 | 0.09 | 0.09 | 45 | 984.6 |
| 20260503182316 | 67 | 257 | 8.0 | 17.0 | 0.00 | 0.09 | 0.09 | 45 | 984.7 |
| 20260503181303 | 67 | 209 | 8.0 | 21.0 | 0.00 | 0.09 | 0.09 | 45 | 984.8 |
| 20260503180758 | 67 | 271 | 8.0 | 17.0 | 0.00 | 0.09 | 0.09 | 45 | 984.8 |
| 20260503180251 | 67 | 350 | 7.0 | 17.0 | 0.00 | 0.09 | 0.09 | 45 | 984.9 |
| 20260503175746 | 67 | 200 | 6.0 | 17.0 | 0.00 | 0.09 | 0.09 | 45 | 984.9 |
| 20260503175240 | 66 | 244 | 6.0 | 15.0 | 0.00 | 0.09 | 0.09 | 46 | 984.9 |
| 20260503174733 | 67 | 249 | 6.0 | 20.0 | 0.00 | 0.09 | 0.09 | 45 | 985.1 |
| 20260503174234 | 66 | 221 | 6.0 | 20.0 | 0.00 | 0.09 | 0.09 | 46 | 985.0 |
| 20260503173734 | 65 | 179 | 7.0 | 19.0 | 0.00 | 0.09 | 0.09 | 47 | 985.1 |
| 20260503173234 | 65 | 263 | 8.0 | 19.0 | 0.00 | 0.09 | 0.09 | 47 | 985.2 |
| 20260503172732 | 65 | 263 | 7.0 | 18.0 | 0.00 | 0.09 | 0.09 | 47 | 985.3 |
| 20260503172231 | 65 | 198 | 6.0 | 18.0 | 0.00 | 0.09 | 0.09 | 47 | 985.3 |
| 20260503171732 | 64 | 171 | 8.0 | 19.0 | 0.00 | 0.09 | 0.09 | 48 | 985.3 |
| 20260503171232 | 63 | 171 | 9.0 | 19.0 | 0.00 | 0.09 | 0.09 | 50 | 985.4 |
| 20260503170732 | 63 | 198 | 9.0 | 19.0 | 0.00 | 0.09 | 0.09 | 50 | 985.5 |
| 20260503170231 | 63 | 195 | 9.0 | 23.0 | 0.00 | 0.09 | 0.09 | 51 | 985.5 |
| 20260503160210 | 61 | 153 | 7.0 | 18.0 | 0.00 | 0.09 | 0.09 | 51 | 986.1 |
| 20260503150710 | 57 | 221 | 7.0 | 17.0 | 0.00 | 0.09 | 0.09 | 57 | 986.8 |
| 20260503140201 | 54 | 169 | 4.0 | 8.0 | 0.00 | 0.09 | 0.09 | 67 | 988.0 |
| 20260503130701 | 50 | 217 | 6.0 | 13.0 | 0.01 | 0.09 | 0.09 | 70 | 988.3 |
| 20260503130201 | 50 | 166 | 4.0 | 10.0 | 0.01 | 0.09 | 0.09 | 72 | 988.4 |
| 20260503120137 | 50 | 164 | 4.0 | 8.0 | 0.06 | 0.08 | 0.08 | 78 | 989.5 |
| 20260503110531 | 51 | 194 | 2.0 | 10.0 | 0.02 | 0.02 | 0.02 | 78 | 990.3 |
| 20260503090308 | 52 | 240 | 3.0 | 9.0 | 0.00 | 0.00 | 0.00 | 54 | 990.5 |
| 20260503081207 | 52 | 200 | 2.0 | 8.0 | 0.00 | 0.00 | 0.00 | 52 | 990.2 |
| 20260503080701 | 52 | 212 | 3.0 | 10.0 | 0.00 | 0.00 | 0.00 | 52 | 990.3 |
| 20260503080156 | 52 | 161 | 4.0 | 10.0 | 0.00 | 0.00 | 0.00 | 52 | 990.3 |
| 20260503072652 | 52 | 190 | 5.0 | 10.0 | 0.00 | 0.00 | 0.00 | 50 | 990.5 |
| 20260503072151 | 52 | 201 | 5.0 | 11.0 | 0.00 | 0.00 | 0.00 | 50 | 990.6 |
| 20260503071650 | 53 | 184 | 5.0 | 11.0 | 0.00 | 0.00 | 0.00 | 49 | 990.6 |
| 20260503071151 | 53 | 192 | 5.0 | 11.0 | 0.00 | 0.00 | 0.00 | 49 | 990.7 |
| 20260503070649 | 53 | 205 | 5.0 | 10.0 | 0.00 | 0.00 | 0.00 | 49 | 990.8 |
| 20260503070148 | 53 | 183 | 4.0 | 10.0 | 0.00 | 0.00 | 0.00 | 49 | 990.8 |
| 20260503060147 | 53 | 196 | 4.0 | 10.0 | 0.00 | 0.00 | 0.00 | 47 | 991.2 |
| 20260503054644 | 53 | 197 | 3.0 | 9.0 | 0.00 | 0.00 | 0.00 | 48 | 991.3 |
| 20260503054144 | 53 | 183 | 2.0 | 9.0 | 0.00 | 0.00 | 0.00 | 47 | 991.4 |
| 20260503053645 | 53 | 209 | 3.0 | 8.0 | 0.00 | 0.00 | 0.00 | 47 | 991.4 |
| 20260503053144 | 53 | 259 | 3.0 | 11.0 | 0.00 | 0.00 | 0.00 | 47 | 991.4 |
| 20260503052144 | 53 | 214 | 3.0 | 9.0 | 0.00 | 0.00 | 0.00 | 47 | 991.4 |
| 20260503051642 | 53 | 197 | 3.0 | 9.0 | 0.00 | 0.00 | 0.00 | 47 | 991.4 |
| 20260503051137 | 53 | 239 | 3.0 | 9.0 | 0.00 | 0.00 | 0.00 | 47 | 991.5 |
| 20260503050636 | 53 | 205 | 3.0 | 9.0 | 0.00 | 0.00 | 0.00 | 47 | 991.5 |
| 20260503050137 | 53 | 231 | 2.0 | 9.0 | 0.00 | 0.00 | 0.00 | 47 | 991.5 |
| 20260503045635 | 53 | 225 | 4.0 | 10.0 | 0.00 | 0.00 | 0.00 | 47 | 991.6 |
| 20260503045135 | 53 | 217 | 4.0 | 10.0 | 0.00 | 0.00 | 0.00 | 47 | 991.5 |
| 20260503043631 | 53 | 249 | 3.0 | 10.0 | 0.00 | 0.00 | 0.00 | 48 | 991.7 |
| 20260503043131 | 52 | 207 | 2.0 | 5.0 | 0.00 | 0.00 | 0.00 | 48 | 991.8 |
| 20260503042631 | 52 | 212 | 1.0 | 5.0 | 0.00 | 0.00 | 0.00 | 48 | 991.9 |
| 20260503042129 | 52 | 185 | 1.0 | 3.0 | 0.00 | 0.00 | 0.00 | 49 | 991.9 |
| 20260503041627 | 52 | 187 | 1.0 | 5.0 | 0.00 | 0.00 | 0.00 | 48 | 991.9 |
| 20260503041127 | 52 | 207 | 1.0 | 5.0 | 0.00 | 0.00 | 0.00 | 48 | 992.0 |
| 20260503040627 | 52 | 252 | 1.0 | 4.0 | 0.00 | 0.00 | 0.00 | 49 | 992.1 |